Location: Peterborough
(44.3091°N, 78.3197°W)
Time: 07:22:25
(UTC-04:00)

Vanguard 2 - Pass Details

Date: 25 March 2023
Orbit: 552 x 2926 km, 32.9° (Epoch: 04 June)

Event Time Altitude Azimuth Distance (km) Brightness Sun altitude
Rises 04:31:28 0° 200° (SSW) 6,617 - -27.2°
Exits shadow 04:36:08 - 190° (S) 5,891 11.6 -26.5°
Reaches altitude 10° 04:37:18 10° 187° (S) 5,723 11.6 -26.3°
Maximum altitude 04:49:17 23° 144° (SE) 4,625 11.5 -24.5°
Drops below altitude 10° 05:00:04 10° 101° (E) 5,155 12.4 -22.8°
Sets 05:04:50 0° 88° (E) 5,839 13.1 -22.0°
